Location: Aulnoy
(48.8410°N, 3.0967°E)
Time: 23:55:39
(UTC+00:00)

Envisat - Pass Details

Date: 28 February 2024
Orbit: 762 x 764 km, 98.3° (Epoch: 12 April)

Event Time Altitude Azimuth Distance (km) Brightness Sun altitude
Rises 03:15:48 0° 15° (NNE) 3,242 6.8 -32.4°
Reaches altitude 10° 03:18:08 10° 17° (NNE) 2,311 5.9 -32.0°
Enters shadow 03:21:36 44° 27° (NNE) 1,052 3.9 -31.5°
